Location: *
(50.2903°S, 172.5375°W)
Time: 11:21:27
(UTC+00:00)

Cosmos 2341 Rocket - Pass Details

Date: 17 November 2019
Orbit: 969 x 1004 km, 82.9° (Epoch: 05 December)

Event Time Altitude Azimuth Distance (km) Brightness Sun altitude
Rises 12:43:34 0° 192° (SSW) 3,738 8.0 -18.0°
Reaches altitude 10° 12:46:09 10° 195° (SSW) 2,778 7.1 -17.9°
Maximum altitude 12:52:24 61° 273° (W) 1,114 4.1 -17.5°
Enters shadow 12:55:55 27° 344° (NNW) 1,809 4.8 -17.2°
